Visibility
7.2 11.5 10.0 13.8 11.5 10.0 14.4 15.0 15.0 15.0 13.9 15.0 15.0 15.0 15.0 12.4 11.6 15.0 15.0 15.0 3.8 0.7 15.0 15.0 15.0 15.0 15.0 15.0 15.0 15.0 15.0 15.0 15.0 11.0 10.4 0.8 0.5 15.0 4.2 15.0 15.0 14.0 7.1 14.0 12.3 12.9 13.9 15.0 15.0 15.0 12.5 4.9 14.4 15.0
8.7 7.7 10.5 12.7 15.0 6.2 10.4 15.0 15.0 15.0 15.0 14.1 15.0 15.0 15.0 10.6 11.4 15.0 15.0 15.0 15.0 0.0 15.0 15.0 15.0 15.0 15.0 15.0 15.0 15.0 15.0 15.0 15.0 13.4 15.0 15.0 15.0 0.1 3.5 0.3 0.6 1.3 0.3 0.3 15.0 15.0 15.0 15.0 15.0 15.0 15.0 15.0 14.1 15.0
15.0 6.1 13.0 13.7 14.2 14.9 12.8 14.7 15.0 14.4 15.0 15.0 15.0 15.0 15.0 15.0 13.4 14.6 15.0 10.5 0.2 0.0 5.8 1.5 15.0 15.0 15.0 15.0 15.0 15.0 15.0 15.0 0.2 15.0 11.0 4.6 0.3 15.0 14.9 15.0 0.0 2.5 0.1 0.0 13.5 15.0 15.0 15.0 15.0 14.1 8.5 15.0 9.5 14.8
11.9 5.2 11.8 15.0 15.0 14.0 13.9 15.0 15.0 15.0 15.0 15.0 15.0 15.0 14.9 10.6 9.1 14.8 15.0 15.0 0.6 0.1 0.1 14.3 15.0 15.0 15.0 15.0 15.0 15.0 15.0 15.0 15.0 15.0 1.6 0.1 0.6 15.0 15.0 15.0 3.9 0.1 0.0 0.0 1.1 12.0 11.5 15.0 15.0 15.0 15.0 10.5 15.0 15.0
11.4 10.9 7.7 14.7 11.8 12.2 14.6 15.0 15.0 14.5 15.0 15.0 15.0 14.2 15.0 15.0 9.7 14.8 15.0 15.0 15.0 0.9 0.2 15.0 15.0 15.0 15.0 15.0 15.0 15.0 15.0 15.0 15.0 2.0 0.1 0.3 14.7 3.7 15.0 1.3 0.1 0.0 0.0 0.0 0.0 0.0 0.1 0.1 13.9 10.1 9.5 15.0 5.0 15.0
3.7 7.8 14.9 13.7 13.8 14.9 7.7 9.0 12.2 15.0 15.0 15.0 15.0 15.0 14.1 9.9 8.7 7.8 0.2 15.0 15.0 15.0 0.0 0.1 15.0 15.0 15.0 15.0 15.0 15.0 15.0 15.0 15.0 14.8 15.0 15.0 15.0 0.6 3.2 7.9 0.3 0.1 0.0 0.0 0.0 0.0 0.0 0.0 0.1 15.0 15.0 15.0 15.0 15.0
13.4 13.6 15.0 15.0 15.0 15.0 15.0 15.0 8.9 14.7 15.0 15.0 15.0 15.0 15.0 15.0 13.0 4.2 15.0 8.3 14.5 15.0 0.0 0.4 14.4 15.0 15.0 15.0 15.0 15.0 15.0 15.0 12.0 15.0 13.3 15.0 15.0 15.0 14.4 9.6 15.0 0.2 0.0 0.0 0.1 0.1 0.0 0.1 0.1 0.0 0.1 11.3 15.0 15.0
12.5 14.0 15.0 15.0 15.0 15.0 15.0 14.2 15.0 14.4 15.0 15.0 15.0 15.0 15.0 8.1 6.4 6.8 15.0 9.5 4.4 0.5 0.0 0.4 14.3 15.0 15.0 15.0 15.0 15.0 15.0 10.6 0.0 1.1 13.8 15.0 15.0 15.0 1.1 15.0 15.0 15.0 15.0 0.1 0.0 0.0 0.0 0.1 0.5 5.7 15.0 15.0 15.0 15.0
9.8 13.9 15.0 15.0 15.0 13.9 15.0 13.5 15.0 15.0 15.0 15.0 15.0 10.9 8.6 1.3 0.0 0.1 15.0 15.0 10.2 0.1 0.1 0.1 6.4 15.0 15.0 4.4 3.8 0.1 6.8 0.1 14.5 0.1 0.6 15.0 14.2 1.5 0.8 3.4 7.4 10.7 2.4 14.9 15.0 15.0 12.8 12.1 12.1 12.7 11.8 15.0 15.0 15.0
13.6 15.0 15.0 15.0 11.7 14.7 15.0 15.0 15.0 15.0 15.0 14.9 3.2 0.0 0.0 0.0 15.0 15.0 0.1 0.0 0.0 0.0 0.0 0.3 14.8 15.0 15.0 15.0 11.7 0.1 0.0 3.0 4.6 15.0 0.2 0.2 0.4 1.0 2.2 8.1 14.8 12.8 15.0 15.0 14.8 14.4 14.6 14.7 15.0 15.0 12.8 8.3 2.2 1.5
15.0 15.0 15.0 15.0 14.4 15.0 15.0 15.0 15.0 15.0 7.6 0.1 0.0 0.0 1.1 14.5 2.9 0.0 0.0 0.0 0.0 0.9 0.1 5.5 15.0 15.0 15.0 4.8 0.3 0.0 0.1 0.3 0.3 11.4 11.9 1.8 0.2 0.3 0.5 0.3 0.4 6.2 15.0 15.0 15.0 15.0 15.0 15.0 15.0 13.1 3.2 4.0 4.9 10.7
15.0 15.0 15.0 15.0 15.0 15.0 15.0 14.5 12.8 2.8 0.1 0.2 0.2 10.3 0.8 0.0 0.0 0.0 0.1 0.2 7.2 15.0 15.0 15.0 15.0 15.0 9.2 11.3 0.1 0.0 0.1 0.1 2.3 5.0 0.3 1.8 0.2 0.3 2.2 5.0 15.0 6.0 15.0 15.0 15.0 15.0 15.0 15.0 15.0 13.5 2.4 1.2 0.7 0.8
15.0 15.0 15.0 15.0 15.0 15.0 15.0 14.9 14.4 15.0 15.0 6.4 0.1 0.0 0.1 0.0 0.0 0.8 0.5 0.2 11.7 15.0 12.9 0.1 0.2 0.7 0.7 0.3 0.0 0.0 0.1 0.3 0.1 0.1 0.1 0.4 0.2 0.4 1.9 15.0 15.0 15.0 15.0 15.0 15.0 15.0 15.0 15.0 15.0 4.6 2.1 1.9 1.7 3.3
15.0 15.0 15.0 15.0 15.0 14.9 13.6 6.6 7.7 7.0 1.0 0.0 0.2 0.1 3.3 0.2 10.6 15.0 14.0 14.6 14.3 0.6 12.9 0.4 0.1 0.1 0.2 0.0 1.0 0.2 0.5 0.1 0.1 0.1 0.6 0.3 0.3 1.3 0.7 14.3 15.0 12.7 15.0 15.0 9.0 15.0 15.0 9.4 4.2 2.5 1.2 0.8 2.1 2.6
15.0 15.0 15.0 12.7 14.5 14.1 4.7 5.7 5.7 2.7 0.0 0.2 15.0 1.7 3.2 8.2 2.7 1.6 1.0 14.0 13.9 12.5 0.4 0.0 0.2 0.5 0.3 0.6 2.0 1.1 5.5 1.7 1.2 0.6 0.6 0.4 0.5 2.8 2.9 7.9 12.5 4.8 4.1 4.1 4.1 4.1 8.3 9.9 6.5 2.6 1.0 1.0 1.0 0.8
15.0 9.4 6.2 7.4 9.2 8.1 4.5 3.2 4.2 6.4 13.9 15.0 10.4 1.5 0.6 7.9 0.9 4.0 0.8 1.3 8.6 7.7 0.4 0.0 0.1 3.6 0.2 4.1 4.0 0.8 0.8 1.3 1.0 0.5 0.5 10.9 13.9 5.1 4.1 4.7 4.1 4.1 3.8 5.1 4.1 6.6 11.5 8.1 3.8 1.1 3.0 3.2 2.3 1.5
4.5 0.5 13.3 6.8 4.1 4.0 6.9 15.0 15.0 15.0 15.0 15.0 1.0 0.5 1.2 1.5 0.6 0.6 0.4 0.3 0.9 0.3 0.1 0.1 0.1 0.3 4.8 3.9 3.2 3.0 1.9 0.8 1.6 1.4 5.3 5.1 4.5 0.8 0.4 3.2 1.5 7.9 9.9 7.6 4.1 4.4 2.8 8.4 14.6 15.0 3.6 0.8 1.3 0.8
0.2 0.6 4.1 3.9 6.2 15.0 15.0 14.4 14.3 15.0 2.1 2.5 6.6 0.6 3.5 1.1 0.9 0.5 0.7 1.2 0.3 0.5 0.9 7.2 15.0 15.0 5.1 10.5 2.7 0.8 0.4 0.4 1.2 3.2 4.6 4.2 4.1 4.1 13.3 8.4 3.1 3.3 2.4 3.6 4.1 4.8 8.4 15.0 4.1 1.6 1.7 1.7 2.8 1.7
15.0 15.0 15.0 15.0 15.0 15.0 1.3 13.5 15.0 7.2 0.4 0.9 0.6 3.0 3.8 0.5 0.1 0.4 0.3 0.2 0.4 0.2 0.1 0.2 0.2 3.1 1.0 0.9 0.6 0.3 0.5 0.8 2.7 3.3 1.4 1.7 2.4 4.3 4.1 5.4 4.4 2.6 1.9 1.9 2.4 3.4 2.3 1.9 1.6 1.6 2.2 4.1 2.0 1.9
12.6 11.3 14.1 14.4 15.0 15.0 15.0 15.0 15.0 15.0 2.0 1.5 12.7 6.9 3.8 3.1 10.5 6.7 12.1 2.1 0.5 0.4 0.5 0.5 0.4 0.4 0.3 0.2 0.2 0.3 0.4 0.2 0.2 0.5 1.2 2.5 0.9 1.9 4.0 4.1 3.2 1.5 1.7 1.3 1.2 1.9 2.7 2.6 1.5 1.8 3.7 4.1 4.0 1.8
15.0 15.0 15.0 15.0 15.0 15.0 15.0 15.0 1.9 15.0 14.9 12.4 12.9 15.0 4.2 15.0 15.0 8.4 7.8 15.0 6.2 0.4 0.3 0.3 0.2 0.1 0.2 0.1 0.2 0.3 0.5 0.4 0.2 0.3 0.4 0.4 0.2 0.4 0.6 0.8 2.5 3.7 3.7 2.4 2.7 1.7 3.7 2.2 1.3 3.0 4.1 3.0 2.9 2.4
15.0 15.0 15.0 15.0 15.0 15.0 15.0 15.0 12.5 14.9 9.4 5.0 1.7 15.0 4.1 5.7 4.1 14.9 15.0 12.2 0.5 0.2 0.4 0.4 0.2 0.2 0.3 0.4 0.2 0.3 0.2 0.5 0.3 0.3 0.2 0.3 0.3 0.7 1.5 2.0 3.8 2.5 2.4 1.2 1.6 1.1 0.8 0.7 1.3 3.1 3.5 1.5 3.8 2.6
15.0 15.0 15.0 15.0 15.0 15.0 15.0 0.5 9.2 11.4 2.8 0.4 12.9 8.0 1.6 3.0 4.2 15.0 2.9 1.2 0.4 0.2 0.6 0.4 0.2 0.2 0.2 0.1 0.1 0.1 0.1 0.2 0.3 0.4 0.4 0.4 0.4 0.3 0.4 0.3 0.3 0.5 0.6 0.4 0.6 0.7 0.8 1.2 1.5 2.2 2.1 2.1 2.5 1.3
15.0 15.0 15.0 14.3 15.0 0.3 0.3 3.8 14.6 14.8 13.1 15.0 13.8 1.0 5.3 15.0 15.0 15.0 2.3 1.1 0.2 0.1 0.1 0.1 0.2 0.6 3.2 8.9 2.0 1.4 1.3 3.3 3.6 3.3 2.0 4.1 2.1 0.5 0.4 0.3 0.3 0.2 0.2 0.2 0.2 0.3 0.4 0.5 0.6 0.9 1.0 0.9 0.5 0.5
15.0 15.0 15.0 14.7 10.4 14.9 14.0 14.4 14.8 14.6 2.7 7.0 10.1 0.6 1.2 15.0 10.1 3.6 0.7 1.4 0.8 0.7 1.0 11.0 15.0 14.6 4.4 1.3 1.2 1.1 2.1 6.6 4.1 2.6 0.6 0.7 0.9 0.9 0.6 0.4 0.3 0.2 0.2 0.2 0.2 0.2 0.3 0.4 0.5 0.5 0.6 2.0 11.4 4.1
8.5 6.4 3.1 4.5 6.5 15.0 7.9 4.9 10.4 7.8 11.4 4.7 0.9 2.5 15.0 15.0 11.7 1.8 4.4 3.8 3.8 4.3 4.8 15.0 7.8 4.0 1.9 3.3 3.5 3.3 1.8 3.6 7.7 3.3 0.4 0.4 0.8 2.9 1.9 1.7 1.4 1.6 0.7 0.4 0.4 0.3 0.3 0.3 0.5 0.6 0.6 0.6 0.8 1.3
6.3 5.0 9.2 14.9 15.0 15.0 15.0 15.0 15.0 15.0 4.1 3.3 3.0 15.0 15.0 3.9 2.4 4.8 1.0 3.2 4.3 4.0 6.9 10.8 9.3 9.5 3.5 1.4 1.3 1.1 1.9 4.2 6.1 1.6 0.7 0.9 0.9 0.7 1.3 1.3 1.0 0.3 0.4 0.6 1.2 1.8 1.0 0.6 0.4 0.3 0.3 0.4 0.7 1.3
8.2 15.0 7.8 6.8 9.8 15.0 10.9 5.5 4.1 3.0 1.5 3.1 15.0 5.3 13.6 15.0 4.1 2.4 3.4 1.7 1.5 3.3 3.5 4.3 6.9 8.6 5.1 3.9 1.5 0.7 0.7 2.3 4.9 15.0 15.0 14.7 13.4 4.0 2.8 3.8 4.1 4.7 1.9 0.8 0.6 1.2 2.2 1.5 0.7 0.6 0.8 1.2 5.2 2.6
14.1 15.0 15.0 4.5 15.0 5.9 0.9 1.7 1.1 0.7 0.7 15.0 8.3 1.9 0.8 0.5 0.3 0.7 0.7 1.6 11.8 15.0 15.0 13.7 3.2 3.8 5.2 6.1 3.6 1.7 0.6 0.5 2.6 1.4 2.3 3.9 4.5 14.6 4.6 3.1 4.0 7.4 7.0 4.9 1.7 1.7 9.6 8.9 13.8 15.0 15.0 15.0 5.3 2.9
15.0 14.6 6.6 10.2 6.6 1.4 0.5 0.5 0.6 0.4 1.9 1.9 6.4 0.8 1.1 0.3 0.2 0.8 4.5 12.4 15.0 15.0 12.7 11.2 10.7 15.0 12.0 8.5 4.0 3.1 1.2 0.8 0.6 1.1 1.7 3.7 8.4 2.4 1.5 2.2 3.0 4.0 4.0 6.7 3.8 1.6 0.8 1.0 2.0 5.0 5.7 4.1 3.7 2.9
12.8 15.0 11.0 7.4 1.0 0.5 0.6 3.9 12.5 11.6 15.0 7.7 9.0 3.4 0.7 0.3 0.2 0.3 0.6 1.5 2.5 3.8 4.2 3.5 2.8 2.1 10.2 8.9 4.1 14.3 5.9 1.8 1.7 1.9 2.3 1.9 1.3 1.1 1.4 3.0 2.8 3.0 4.2 4.2 4.1 3.2 3.3 3.6 2.5 2.1 2.4 3.0 2.9 2.3
15.0 9.2 8.0 6.8 1.0 4.6 0.7 2.4 4.9 4.7 0.6 1.2 2.0 1.9 3.7 13.4 2.4 0.4 0.3 1.5 12.3 14.4 4.1 4.6 3.9 2.1 2.0 3.4 4.5 4.6 15.0 4.6 8.3 8.3 14.5 10.0 9.7 5.6 7.8 4.0 2.3 2.9 9.3 4.3 4.1 3.1 1.4 0.7 0.9 1.2 2.6 2.8 2.3 2.1
7.9 15.0 5.9 4.9 2.7 1.3 2.1 7.1 6.0 3.3 2.7 1.8 2.8 1.8 2.8 14.4 9.9 3.2 0.7 1.0 12.6 10.9 9.8 15.0 5.7 4.1 7.7 15.0 15.0 4.5 4.1 3.9 3.2 0.2 0.5 0.6 2.1 4.3 5.5 3.0 2.7 4.2 14.7 4.1 4.1 4.5 2.6 2.2 1.6 1.4 1.4 1.4 1.8 2.1